Time,TemperatureF,DewpointF,PressureIn,WindDirection,WindDirectionDegrees,WindSpeedMPH,WindSpeedGustMPH,Humidity,HourlyPrecipIn,Conditions,Clouds,dailyrainin,SoftwareType,DateUTC
2013-02-22 00:00:00,23.1,19.5,30.06,ENE,78,14.9,20.7,86,0.00,CLR,,0.00,WeatherDisplay:10.37,2013-02-22 05:00:00,
2013-02-22 00:05:00,23.1,19.5,30.05,ESE,105,19.0,23.0,86,0.00,CLR,,0.00,WeatherDisplay:10.37,2013-02-22 05:05:00,
2013-02-22 00:10:00,23.1,19.5,30.05,East,83,13.6,19.0,86,0.00,CLR,,0.00,WeatherDisplay:10.37,2013-02-22 05:10:00,
2013-02-22 00:15:00,23.3,19.7,30.05,East,93,10.2,18.4,86,0.00,CLR,,0.00,WeatherDisplay:10.37,2013-02-22 05:15:00,
2013-02-22 00:20:00,23.3,19.7,30.05,East,86,18.4,21.9,86,0.00,CLR,,0.00,WeatherDisplay:10.37,2013-02-22 05:20:00,
2013-02-22 00:25:00,23.3,19.7,30.06,ENE,69,15.5,17.3,86,0.00,CLR,,0.00,WeatherDisplay:10.37,2013-02-22 05:25:00,
2013-02-22 00:30:00,23.4,19.8,30.06,East,100,9.7,16.1,86,0.00,CLR,,0.00,WeatherDisplay:10.37,2013-02-22 05:30:00,
2013-02-22 00:35:00,23.2,19.9,30.06,ENE,73,15.8,23.0,87,0.00,CLR,,0.00,WeatherDisplay:10.37,2013-02-22 05:35:00,
2013-02-22 00:40:00,22.9,19.6,30.06,ENE,68,12.1,17.3,87,0.00,CLR,,0.00,WeatherDisplay:10.37,2013-02-22 05:40:00,
2013-02-22 00:45:00,22.8,19.8,30.06,ENE,74,17.0,19.6,88,0.00,CLR,,0.00,WeatherDisplay:10.37,2013-02-22 05:45:00,
2013-02-22 00:50:00,22.6,19.8,30.05,East,87,14.0,14.0,89,0.00,CLR,,0.00,WeatherDisplay:10.37,2013-02-22 05:50:00,
2013-02-22 00:55:00,22.3,19.6,30.04,East,79,15.9,19.6,89,0.00,CLR,,0.00,WeatherDisplay:10.37,2013-02-22 05:55:00,
2013-02-22 01:00:00,22.1,19.6,30.04,ENE,68,18.9,23.0,90,0.00,CLR,,0.00,WeatherDisplay:10.37,2013-02-22 06:00:00,
2013-02-22 01:05:00,22.1,19.6,30.04,East,88,14.2,17.3,90,0.00,CLR,,0.00,WeatherDisplay:10.37,2013-02-22 06:05:00,
2013-02-22 01:10:00,22.1,19.6,30.04,East,79,14.5,17.3,90,0.00,CLR,,0.00,WeatherDisplay:10.37,2013-02-22 06:10:00,
2013-02-22 01:15:00,22.1,19.6,30.03,East,85,14.8,21.0,90,0.00,CLR,,0.00,WeatherDisplay:10.37,2013-02-22 06:15:00,
2013-02-22 01:20:00,22.0,19.8,30.02,ENE,76,14.8,19.6,91,0.00,CLR,,0.00,WeatherDisplay:10.37,2013-02-22 06:20:00,
2013-02-22 01:25:00,22.0,19.8,30.01,ENE,78,13.2,19.6,91,0.00,CLR,,0.00,WeatherDisplay:10.37,2013-02-22 06:25:00,
2013-02-22 01:30:00,22.0,19.8,30.00,ENE,69,16.8,24.2,91,0.00,CLR,,0.00,WeatherDisplay:10.37,2013-02-22 06:30:00,
2013-02-22 01:35:00,22.0,19.8,30.00,ENE,76,19.5,22.0,91,0.00,CLR,,0.00,WeatherDisplay:10.37,2013-02-22 06:35:00,
2013-02-22 01:40:00,22.1,19.9,30.00,ESE,109,14.2,19.6,91,0.00,CLR,,0.00,WeatherDisplay:10.37,2013-02-22 06:40:00,
2013-02-22 01:45:00,22.2,20.0,29.99,ENE,69,14.4,17.3,91,0.00,CLR,,0.00,WeatherDisplay:10.37,2013-02-22 06:45:00,
2013-02-22 01:50:00,22.2,20.0,30.00,ENE,73,12.6,17.0,91,0.00,CLR,,0.00,WeatherDisplay:10.37,2013-02-22 06:50:00,
2013-02-22 01:55:00,22.3,20.1,30.00,East,90,10.8,19.6,91,0.00,CLR,,0.00,WeatherDisplay:10.37,2013-02-22 06:55:00,
2013-02-22 02:00:00,22.3,20.1,29.99,East,82,14.2,18.4,91,0.00,CLR,,0.00,WeatherDisplay:10.37,2013-02-22 07:00:00,
2013-02-22 02:05:00,22.4,20.2,29.99,East,94,10.8,20.7,91,0.00,CLR,,0.00,WeatherDisplay:10.37,2013-02-22 07:05:00,
2013-02-22 02:10:00,22.4,20.2,29.98,East,87,14.0,17.0,91,0.00,CLR,,0.00,WeatherDisplay:10.37,2013-02-22 07:10:00,
2013-02-22 02:15:00,22.4,20.2,29.98,ENE,76,15.1,17.3,91,0.00,CLR,,0.00,WeatherDisplay:10.37,2013-02-22 07:15:00,
2013-02-22 02:20:00,22.5,20.3,29.98,East,80,12.2,16.1,91,0.00,CLR,,0.00,WeatherDisplay:10.37,2013-02-22 07:20:00,
2013-02-22 02:25:00,22.5,20.3,29.98,ENE,74,14.9,23.0,91,0.00,CLR,,0.00,WeatherDisplay:10.37,2013-02-22 07:25:00,
2013-02-22 02:30:00,22.5,20.3,29.98,ENE,76,12.0,13.8,91,0.00,CLR,,0.00,WeatherDisplay:10.37,2013-02-22 07:30:00,
2013-02-22 02:35:00,22.5,20.3,29.98,ENE,66,13.7,19.6,91,0.00,CLR,,0.00,WeatherDisplay:10.37,2013-02-22 07:35:00,
2013-02-22 02:40:00,22.5,20.3,29.97,ENE,78,15.2,20.7,91,0.00,CLR,,0.00,WeatherDisplay:10.37,2013-02-22 07:40:00,
2013-02-22 02:45:00,22.6,20.4,29.97,ENE,78,14.8,16.1,91,0.00,CLR,,0.00,WeatherDisplay:10.37,2013-02-22 07:45:00,
2013-02-22 02:50:00,22.7,20.5,29.97,ENE,78,12.6,18.0,91,0.00,CLR,,0.00,WeatherDisplay:10.37,2013-02-22 07:50:00,
2013-02-22 02:55:00,22.8,20.6,29.97,ENE,66,12.3,17.0,91,0.00,CLR,,0.00,WeatherDisplay:10.37,2013-02-22 07:55:00,
2013-02-22 03:00:00,23.0,20.8,29.96,East,86,9.4,20.7,91,0.00,CLR,,0.00,WeatherDisplay:10.37,2013-02-22 08:00:00,
2013-02-22 03:05:00,23.2,21.0,29.96,ENE,71,10.6,12.7,91,0.00,CLR,,0.00,WeatherDisplay:10.37,2013-02-22 08:05:00,
2013-02-22 03:10:00,23.4,21.4,29.95,East,98,10.3,17.3,92,0.00,CLR,,0.00,WeatherDisplay:10.37,2013-02-22 08:10:00,
2013-02-22 03:15:00,23.3,21.1,29.95,East,88,5.4,16.1,91,0.00,CLR,,0.00,WeatherDisplay:10.37,2013-02-22 08:15:00,
2013-02-22 03:20:00,23.3,21.1,29.95,ENE,73,10.7,13.0,91,0.00,CLR,,0.00,WeatherDisplay:10.37,2013-02-22 08:20:00,
2013-02-22 03:25:00,23.3,21.1,29.95,East,84,7.7,19.6,91,0.00,CLR,,0.00,WeatherDisplay:10.37,2013-02-22 08:25:00,
2013-02-22 03:30:00,23.3,21.1,29.94,ENE,63,12.6,20.7,91,0.00,CLR,,0.00,WeatherDisplay:10.37,2013-02-22 08:30:00,
2013-02-22 03:35:00,23.2,21.0,29.94,ENE,72,9.9,14.0,91,0.00,CLR,,0.00,WeatherDisplay:10.37,2013-02-22 08:35:00,
2013-02-22 03:40:00,23.2,21.0,29.93,East,98,11.1,12.0,91,0.00,CLR,,0.00,WeatherDisplay:10.37,2013-02-22 08:40:00,
2013-02-22 03:45:00,23.3,21.3,29.93,East,86,13.0,18.4,92,0.00,CLR,,0.00,WeatherDisplay:10.37,2013-02-22 08:45:00,
2013-02-22 03:50:00,23.3,21.3,29.93,East,84,10.1,16.1,92,0.00,CLR,,0.00,WeatherDisplay:10.37,2013-02-22 08:50:00,
2013-02-22 03:55:00,23.4,21.4,29.93,ENE,70,9.3,11.5,92,0.00,CLR,,0.00,WeatherDisplay:10.37,2013-02-22 08:55:00,
2013-02-22 04:00:00,23.4,21.4,29.93,East,100,7.3,11.5,92,0.00,CLR,,0.00,WeatherDisplay:10.37,2013-02-22 09:00:00,
2013-02-22 04:05:00,23.5,21.5,29.93,East,80,6.7,11.5,92,0.00,CLR,,0.00,WeatherDisplay:10.37,2013-02-22 09:05:00,
2013-02-22 04:10:00,23.5,21.5,29.92,ESE,106,8.3,12.7,92,0.00,CLR,,0.00,WeatherDisplay:10.37,2013-02-22 09:10:00,
2013-02-22 04:15:00,23.5,21.5,29.92,ENE,74,5.0,11.5,92,0.00,CLR,,0.00,WeatherDisplay:10.37,2013-02-22 09:15:00,
2013-02-22 04:20:00,23.5,21.5,29.92,ENE,66,9.5,12.0,92,0.00,CLR,,0.00,WeatherDisplay:10.37,2013-02-22 09:20:00,
2013-02-22 04:25:00,23.4,21.4,29.91,ENE,71,9.4,16.1,92,0.00,CLR,,0.00,WeatherDisplay:10.37,2013-02-22 09:25:00,
2013-02-22 04:30:00,23.4,21.4,29.91,ENE,77,8.1,8.1,92,0.00,CLR,,0.00,WeatherDisplay:10.37,2013-02-22 09:30:00,
2013-02-22 04:35:00,23.6,21.6,29.91,ENE,78,5.2,12.7,92,0.00,CLR,,0.00,WeatherDisplay:10.37,2013-02-22 09:35:00,
2013-02-22 04:40:00,23.7,21.7,29.91,East,93,9.2,13.8,92,0.00,CLR,,0.00,WeatherDisplay:10.37,2013-02-22 09:40:00,
2013-02-22 04:45:00,23.9,21.9,29.91,East,98,6.4,10.4,92,0.00,CLR,,0.00,WeatherDisplay:10.37,2013-02-22 09:45:00,
2013-02-22 04:50:00,24.1,22.1,29.91,East,80,10.1,11.5,92,0.00,CLR,,0.00,WeatherDisplay:10.37,2013-02-22 09:50:00,
2013-02-22 04:55:00,24.1,22.1,29.91,East,82,7.7,9.2,92,0.00,CLR,,0.00,WeatherDisplay:10.37,2013-02-22 09:55:00,
2013-02-22 05:00:00,24.0,22.0,29.91,ESE,121,5.5,9.2,92,0.00,CLR,,0.00,WeatherDisplay:10.37,2013-02-22 10:00:00,
2013-02-22 05:05:00,23.9,21.9,29.91,ESE,121,1.8,5.8,92,0.00,CLR,,0.00,WeatherDisplay:10.37,2013-02-22 10:05:00,
2013-02-22 05:10:00,23.8,21.8,29.91,ESE,117,4.4,9.2,92,0.00,CLR,,0.00,WeatherDisplay:10.37,2013-02-22 10:10:00,
2013-02-22 05:15:00,23.7,21.7,29.91,East,86,4.3,9.2,92,0.00,CLR,,0.00,WeatherDisplay:10.37,2013-02-22 10:15:00,
2013-02-22 05:20:00,23.8,21.8,29.91,East,86,5.3,5.8,92,0.00,CLR,,0.00,WeatherDisplay:10.37,2013-02-22 10:20:00,
2013-02-22 05:25:00,23.8,21.8,29.91,East,80,6.1,10.4,92,0.00,CLR,,0.00,WeatherDisplay:10.37,2013-02-22 10:25:00,
2013-02-22 05:30:00,23.8,21.8,29.91,East,95,6.4,11.5,92,0.00,CLR,,0.00,WeatherDisplay:10.37,2013-02-22 10:30:00,
2013-02-22 05:35:00,23.9,21.9,29.90,ESE,111,4.7,12.7,92,0.00,CLR,,0.00,WeatherDisplay:10.37,2013-02-22 10:35:00,
2013-02-22 05:40:00,23.9,21.9,29.91,ESE,118,5.0,10.4,92,0.00,CLR,,0.00,WeatherDisplay:10.37,2013-02-22 10:40:00,
2013-02-22 05:45:00,23.9,21.9,29.91,ENE,78,6.0,6.9,92,0.00,CLR,,0.00,WeatherDisplay:10.37,2013-02-22 10:45:00,
2013-02-22 05:50:00,23.9,21.9,29.91,East,88,2.3,5.8,92,0.00,CLR,,0.00,WeatherDisplay:10.37,2013-02-22 10:50:00,
2013-02-22 05:55:00,23.9,21.9,29.91,ESE,110,3.3,6.9,92,0.00,CLR,,0.00,WeatherDisplay:10.37,2013-02-22 10:55:00,
2013-02-22 06:00:00,24.0,22.0,29.90,East,79,4.1,6.9,92,0.00,CLR,,0.00,WeatherDisplay:10.37,2013-02-22 11:00:00,
2013-02-22 06:05:00,24.1,22.1,29.90,East,90,3.7,5.8,92,0.00,CLR,,0.00,WeatherDisplay:10.37,2013-02-22 11:05:00,
2013-02-22 06:10:00,24.2,22.2,29.90,ENE,71,5.4,9.0,92,0.00,CLR,,0.00,WeatherDisplay:10.37,2013-02-22 11:10:00,
2013-02-22 06:15:00,24.2,22.2,29.90,ENE,78,3.5,5.8,92,0.00,CLR,,0.00,WeatherDisplay:10.37,2013-02-22 11:15:00,
2013-02-22 06:20:00,24.3,22.3,29.90,East,96,3.7,6.9,92,0.00,CLR,,0.00,WeatherDisplay:10.37,2013-02-22 11:20:00,
2013-02-22 06:25:00,24.3,22.3,29.90,East,98,3.0,8.1,92,0.00,CLR,,0.00,WeatherDisplay:10.37,2013-02-22 11:25:00,
2013-02-22 06:30:00,24.4,22.4,29.90,ENE,77,6.0,6.0,92,0.00,CLR,,0.00,WeatherDisplay:10.37,2013-02-22 11:30:00,
2013-02-22 06:35:00,24.5,22.5,29.90,East,82,3.8,5.0,92,0.00,CLR,,0.00,WeatherDisplay:10.37,2013-02-22 11:35:00,
2013-02-22 06:40:00,24.5,22.5,29.90,ESE,111,2.7,9.2,92,0.00,CLR,,0.00,WeatherDisplay:10.37,2013-02-22 11:40:00,
2013-02-22 06:45:00,24.6,22.6,29.90,East,84,3.6,5.8,92,0.00,CLR,,0.00,WeatherDisplay:10.37,2013-02-22 11:45:00,
2013-02-22 06:50:00,24.7,22.7,29.89,ENE,69,5.1,7.0,92,0.00,CLR,,0.00,WeatherDisplay:10.37,2013-02-22 11:50:00,
2013-02-22 06:55:00,24.8,23.1,29.90,East,83,3.3,6.9,93,0.00,CLR,,0.00,WeatherDisplay:10.37,2013-02-22 11:55:00,
2013-02-22 07:00:00,24.8,23.1,29.89,ENE,70,5.4,8.0,93,0.00,CLR,,0.00,WeatherDisplay:10.37,2013-02-22 12:00:00,
2013-02-22 07:05:00,24.8,23.1,29.89,ENE,78,5.8,10.0,93,0.00,CLR,,0.00,WeatherDisplay:10.37,2013-02-22 12:05:00,
2013-02-22 07:10:00,24.9,23.2,29.89,East,84,8.7,11.5,93,0.00,CLR,,0.00,WeatherDisplay:10.37,2013-02-22 12:10:00,
2013-02-22 07:15:00,24.9,23.2,29.90,East,82,5.4,9.2,93,0.00,CLR,,0.00,WeatherDisplay:10.37,2013-02-22 12:15:00,
2013-02-22 07:20:00,24.9,23.2,29.90,East,81,2.5,4.6,93,0.00,CLR,,0.00,WeatherDisplay:10.37,2013-02-22 12:20:00,
2013-02-22 07:25:00,24.9,23.2,29.89,East,84,4.7,9.2,93,0.00,CLR,,0.00,WeatherDisplay:10.37,2013-02-22 12:25:00,
2013-02-22 07:30:00,24.9,23.2,29.89,East,80,8.5,11.5,93,0.00,CLR,,0.00,WeatherDisplay:10.37,2013-02-22 12:30:00,
2013-02-22 07:35:00,24.9,23.2,29.89,East,87,4.6,4.6,93,0.00,CLR,,0.00,WeatherDisplay:10.37,2013-02-22 12:35:00,
2013-02-22 07:40:00,25.0,23.3,29.90,ESE,109,2.1,6.9,93,0.00,CLR,,0.00,WeatherDisplay:10.37,2013-02-22 12:40:00,
2013-02-22 07:45:00,25.0,23.3,29.89,East,90,2.5,5.8,93,0.00,CLR,,0.00,WeatherDisplay:10.37,2013-02-22 12:45:00,
2013-02-22 07:50:00,25.1,23.4,29.89,East,94,2.9,6.9,93,0.00,CLR,,0.00,WeatherDisplay:10.37,2013-02-22 12:50:00,
2013-02-22 07:55:00,25.2,23.5,29.89,East,98,3.5,5.8,93,0.00,CLR,,0.00,WeatherDisplay:10.37,2013-02-22 12:55:00,
2013-02-22 08:00:00,25.2,23.5,29.89,East,100,3.3,5.8,93,0.00,CLR,,0.00,WeatherDisplay:10.37,2013-02-22 13:00:00,
2013-02-22 08:05:00,25.2,23.5,29.89,ENE,78,4.3,8.1,93,0.00,CLR,,0.00,WeatherDisplay:10.37,2013-02-22 13:05:00,
2013-02-22 08:10:00,25.3,23.6,29.89,East,80,3.8,9.2,93,0.00,CLR,,0.00,WeatherDisplay:10.37,2013-02-22 13:10:00,
2013-02-22 08:15:00,25.3,23.6,29.89,East,85,2.5,4.6,93,0.00,CLR,,0.00,WeatherDisplay:10.37,2013-02-22 13:15:00,
2013-02-22 08:20:00,25.4,23.7,29.89,East,86,3.4,4.6,93,0.00,CLR,,0.00,WeatherDisplay:10.37,2013-02-22 13:20:00,
2013-02-22 08:25:00,25.5,23.8,29.89,East,90,1.9,3.5,93,0.00,CLR,,0.00,WeatherDisplay:10.37,2013-02-22 13:25:00,
2013-02-22 08:30:00,25.6,23.9,29.89,East,95,2.8,3.5,93,0.00,CLR,,0.00,WeatherDisplay:10.37,2013-02-22 13:30:00,
2013-02-22 08:35:00,25.7,24.0,29.89,East,98,3.1,3.5,93,0.00,CLR,,0.00,WeatherDisplay:10.37,2013-02-22 13:35:00,
2013-02-22 08:40:00,25.7,24.0,29.89,East,91,2.0,4.6,93,0.00,CLR,,0.00,WeatherDisplay:10.37,2013-02-22 13:40:00,
2013-02-22 08:45:00,25.8,24.1,29.89,East,101,2.7,2.7,93,0.00,CLR,,0.00,WeatherDisplay:10.37,2013-02-22 13:45:00,
2013-02-22 08:50:00,25.9,24.2,29.88,East,90,3.1,4.6,93,0.00,CLR,,0.00,WeatherDisplay:10.37,2013-02-22 13:50:00,
2013-02-22 08:55:00,26.0,24.3,29.88,East,90,2.0,3.5,93,0.00,CLR,,0.00,WeatherDisplay:10.37,2013-02-22 13:55:00,
2013-02-22 09:00:00,26.1,24.4,29.88,ESE,111,3.1,4.6,93,0.00,CLR,,0.00,WeatherDisplay:10.37,2013-02-22 14:00:00,
2013-02-22 09:05:00,26.1,24.4,29.88,ESE,111,0.1,3.5,93,0.00,CLR,,0.00,WeatherDisplay:10.37,2013-02-22 14:05:00,
2013-02-22 09:10:00,26.2,24.5,29.88,East,97,2.1,3.5,93,0.00,CLR,,0.00,WeatherDisplay:10.37,2013-02-22 14:10:00,
2013-02-22 09:15:00,26.2,24.5,29.87,ESE,105,1.1,4.6,93,0.00,CLR,,0.00,WeatherDisplay:10.37,2013-02-22 14:15:00,
2013-02-22 09:20:00,26.3,24.6,29.88,ESE,123,2.8,5.8,93,0.00,CLR,,0.00,WeatherDisplay:10.37,2013-02-22 14:20:00,
2013-02-22 09:25:00,26.3,24.6,29.88,East,92,0.4,3.5,93,0.00,CLR,,0.00,WeatherDisplay:10.37,2013-02-22 14:25:00,
2013-02-22 09:30:00,26.5,24.8,29.87,ESE,103,0.1,5.0,93,0.00,CLR,,0.00,WeatherDisplay:10.37,2013-02-22 14:30:00,
2013-02-22 09:35:00,26.7,24.9,29.87,ESE,117,1.0,6.0,93,0.00,CLR,,0.00,WeatherDisplay:10.37,2013-02-22 14:35:00,
2013-02-22 09:40:00,26.7,24.9,29.88,ESE,122,1.7,6.9,93,0.00,CLR,,0.00,WeatherDisplay:10.37,2013-02-22 14:40:00,
2013-02-22 09:45:00,26.8,25.0,29.87,ESE,111,2.4,4.0,93,0.00,CLR,,0.00,WeatherDisplay:10.37,2013-02-22 14:45:00,
2013-02-22 09:50:00,26.9,25.1,29.87,ESE,103,2.7,3.5,93,0.00,CLR,,0.00,WeatherDisplay:10.37,2013-02-22 14:50:00,
2013-02-22 09:55:00,27.0,25.2,29.87,ESE,122,0.1,4.6,93,0.00,CLR,,0.00,WeatherDisplay:10.37,2013-02-22 14:55:00,
2013-02-22 10:00:00,27.1,25.3,29.86,SE,128,0.8,3.5,93,0.00,CLR,,0.00,WeatherDisplay:10.37,2013-02-22 15:00:00,
2013-02-22 10:05:00,27.2,25.7,29.86,ESE,113,0.6,3.0,94,0.00,CLR,,0.00,WeatherDisplay:10.37,2013-02-22 15:05:00,
2013-02-22 10:10:00,27.4,25.6,29.86,ESE,116,3.0,4.6,93,0.00,CLR,,0.00,WeatherDisplay:10.37,2013-02-22 15:10:00,
2013-02-22 10:15:00,27.6,25.8,29.86,ESE,110,0.0,1.1,93,0.00,CLR,,0.00,WeatherDisplay:10.37,2013-02-22 15:15:00,
2013-02-22 10:20:00,27.8,26.3,29.86,SE,128,0.1,3.5,94,0.00,CLR,,0.00,WeatherDisplay:10.37,2013-02-22 15:20:00,
2013-02-22 10:25:00,27.8,26.3,29.87,ESE,117,0.0,3.5,94,0.00,CLR,,0.00,WeatherDisplay:10.37,2013-02-22 15:25:00,
2013-02-22 10:30:00,28.0,26.5,29.87,ESE,113,0.0,2.3,94,0.00,CLR,,0.00,WeatherDisplay:10.37,2013-02-22 15:30:00,
2013-02-22 10:35:00,28.1,26.6,29.87,ESE,116,1.8,3.5,94,0.00,CLR,,0.00,WeatherDisplay:10.37,2013-02-22 15:35:00,
2013-02-22 10:40:00,28.2,26.7,29.88,SE,135,0.2,6.9,94,0.00,CLR,,0.00,WeatherDisplay:10.37,2013-02-22 15:40:00,
2013-02-22 10:45:00,28.4,26.9,29.88,SE,124,1.6,2.3,94,0.00,CLR,,0.00,WeatherDisplay:10.37,2013-02-22 15:45:00,
2013-02-22 10:50:00,28.5,27.0,29.87,ESE,123,0.0,0.0,94,0.00,CLR,,0.00,WeatherDisplay:10.37,2013-02-22 15:50:00,
2013-02-22 10:55:00,28.6,27.1,29.88,ESE,119,0.0,1.1,94,0.00,CLR,,0.00,WeatherDisplay:10.37,2013-02-22 15:55:00,
2013-02-22 11:00:00,28.7,27.2,29.87,SSE,148,1.0,3.5,94,0.00,CLR,,0.00,WeatherDisplay:10.37,2013-02-22 16:00:00,
2013-02-22 11:05:00,28.8,27.3,29.87,SSE,148,0.3,4.6,94,0.00,CLR,,0.00,WeatherDisplay:10.37,2013-02-22 16:05:00,
2013-02-22 11:10:00,29.0,27.5,29.88,SSE,148,0.1,3.5,94,0.00,CLR,,0.00,WeatherDisplay:10.37,2013-02-22 16:10:00,
2013-02-22 11:15:00,29.2,27.7,29.88,SE,146,1.4,5.8,94,0.00,CLR,,0.00,WeatherDisplay:10.37,2013-02-22 16:15:00,
2013-02-22 11:20:00,29.4,27.9,29.88,SE,143,0.8,3.5,94,0.00,CLR,,0.00,WeatherDisplay:10.37,2013-02-22 16:20:00,
2013-02-22 11:25:00,29.6,28.1,29.87,SE,142,0.3,4.6,94,0.00,CLR,,0.00,WeatherDisplay:10.37,2013-02-22 16:25:00,
2013-02-22 11:30:00,29.7,28.2,29.87,SSE,148,2.7,4.0,94,0.00,CLR,,0.00,WeatherDisplay:10.37,2013-02-22 16:30:00,
2013-02-22 11:35:00,29.8,28.3,29.87,SE,145,2.9,3.5,94,0.00,CLR,,0.00,WeatherDisplay:10.37,2013-02-22 16:35:00,
2013-02-22 11:40:00,30.0,28.5,29.87,SE,145,2.7,4.0,94,0.00,CLR,,0.00,WeatherDisplay:10.37,2013-02-22 16:40:00,
2013-02-22 11:45:00,30.2,28.7,29.87,SSE,148,1.0,3.5,94,0.00,CLR,,0.00,WeatherDisplay:10.37,2013-02-22 16:45:00,
2013-02-22 11:50:00,30.4,28.9,29.87,SSE,148,0.0,0.0,94,0.00,CLR,,0.00,WeatherDisplay:10.37,2013-02-22 16:50:00,
2013-02-22 11:55:00,30.7,29.2,29.87,SSE,148,1.0,4.0,94,0.00,CLR,CLR,0.00,WeatherDisplay:10.37,2013-02-22 16:55:00,
2013-02-22 12:00:00,31.0,29.5,29.87,SSE,154,0.0,4.0,94,0.00,CLR,CLR,0.00,WeatherDisplay:10.37,2013-02-22 17:00:00,
2013-02-22 12:05:00,31.2,29.9,29.87,SSE,158,0.0,4.0,95,0.00,CLR,CLR,0.00,WeatherDisplay:10.37,2013-02-22 17:05:00,
2013-02-22 12:10:00,31.3,30.0,29.87,SSE,153,0.2,4.6,95,0.00,CLR,,0.00,WeatherDisplay:10.37,2013-02-22 17:10:00,
2013-02-22 12:15:00,31.4,30.1,29.87,SSE,156,2.0,4.0,95,0.00,CLR,CLR,0.00,WeatherDisplay:10.37,2013-02-22 17:15:00,
2013-02-22 12:20:00,31.6,30.1,29.87,SSE,147,0.5,3.5,94,0.00,CLR,,0.00,WeatherDisplay:10.37,2013-02-22 17:20:00,
2013-02-22 12:25:00,31.7,30.2,29.87,SSE,151,1.0,4.0,94,0.00,CLR,CLR,0.00,WeatherDisplay:10.37,2013-02-22 17:25:00,
2013-02-22 12:30:00,32.0,30.7,29.87,SSE,159,0.0,0.0,95,0.00,CLR,,0.00,WeatherDisplay:10.37,2013-02-22 17:30:00,
2013-02-22 12:35:00,32.1,30.8,29.87,SSE,159,0.0,4.0,95,0.00,CLR,CLR,0.00,WeatherDisplay:10.37,2013-02-22 17:35:00,
2013-02-22 12:40:00,32.4,31.1,29.87,South,186,3.3,10.4,95,0.00,CLR,,0.00,WeatherDisplay:10.37,2013-02-22 17:40:00,
2013-02-22 12:45:00,32.5,31.2,29.86,SSE,167,0.9,3.5,95,0.00,CLR,,0.00,WeatherDisplay:10.37,2013-02-22 17:45:00,
2013-02-22 12:50:00,32.6,31.3,29.87,South,169,0.0,4.6,95,0.00,CLR,,0.00,WeatherDisplay:10.37,2013-02-22 17:50:00,
2013-02-22 12:55:00,32.6,31.3,29.87,South,172,3.0,9.2,95,0.00,CLR,,0.00,WeatherDisplay:10.37,2013-02-22 17:55:00,
2013-02-22 13:00:00,32.7,31.4,29.86,South,175,0.0,0.0,95,0.00,CLR,,0.00,WeatherDisplay:10.37,2013-02-22 18:00:00,
2013-02-22 13:05:00,32.8,31.5,29.87,SSE,164,0.4,4.6,95,0.01,RA,,0.01,WeatherDisplay:10.37,2013-02-22 18:05:00,
2013-02-22 13:10:00,32.8,31.5,29.87,SSE,165,0.0,0.0,95,0.02,RA,,0.02,WeatherDisplay:10.37,2013-02-22 18:10:00,
2013-02-22 13:15:00,32.8,31.5,29.87,SSE,166,0.0,4.0,95,0.00,RA,RA,0.02,WeatherDisplay:10.37,2013-02-22 18:15:00,
2013-02-22 13:20:00,32.9,31.6,29.87,South,169,0.5,0.0,95,0.02,CLR,,0.02,WeatherDisplay:10.37,2013-02-22 18:20:00,
2013-02-22 13:25:00,33.0,31.7,29.87,South,175,0.0,3.5,95,0.02,CLR,,0.02,WeatherDisplay:10.37,2013-02-22 18:25:00,
2013-02-22 13:30:00,33.1,31.8,29.87,South,183,0.9,3.5,95,0.02,CLR,,0.02,WeatherDisplay:10.37,2013-02-22 18:30:00,
2013-02-22 13:35:00,33.2,31.9,29.87,South,190,0.1,1.0,95,0.02,CLR,,0.02,WeatherDisplay:10.37,2013-02-22 18:35:00,
2013-02-22 13:40:00,33.3,32.0,29.87,SSW,213,0.0,0.0,95,0.02,CLR,,0.02,WeatherDisplay:10.37,2013-02-22 18:40:00,
2013-02-22 13:45:00,33.4,32.1,29.87,SW,228,0.1,5.8,95,0.02,CLR,,0.02,WeatherDisplay:10.37,2013-02-22 18:45:00,
2013-02-22 13:50:00,33.5,32.2,29.87,SW,225,3.5,4.0,95,0.02,CLR,,0.03,WeatherDisplay:10.37,2013-02-22 18:50:00,
2013-02-22 13:55:00,33.5,32.2,29.87,SW,232,3.0,7.0,95,0.00,RA,RA,0.03,WeatherDisplay:10.37,2013-02-22 18:55:00,
2013-02-22 14:00:00,33.6,32.3,29.86,SW,232,2.3,6.0,95,0.03,RA,,0.03,WeatherDisplay:10.37,2013-02-22 19:00:00,
2013-02-22 14:05:00,33.7,32.4,29.86,WSW,242,0.5,6.9,95,0.02,CLR,,0.03,WeatherDisplay:10.37,2013-02-22 19:05:00,
2013-02-22 14:10:00,33.7,32.4,29.86,SW,222,4.2,5.8,95,0.01,CLR,,0.03,WeatherDisplay:10.37,2013-02-22 19:10:00,
2013-02-22 14:15:00,33.7,32.4,29.87,SW,219,3.4,4.6,95,0.01,CLR,,0.03,WeatherDisplay:10.37,2013-02-22 19:15:00,
2013-02-22 14:20:00,33.7,32.4,29.87,WSW,245,6.4,11.5,95,0.01,CLR,,0.03,WeatherDisplay:10.37,2013-02-22 19:20:00,
2013-02-22 14:25:00,33.6,32.3,29.87,SW,227,4.7,9.2,95,0.01,CLR,,0.03,WeatherDisplay:10.37,2013-02-22 19:25:00,
2013-02-22 14:30:00,33.6,32.3,29.87,SW,216,3.6,6.0,95,0.01,CLR,,0.03,WeatherDisplay:10.37,2013-02-22 19:30:00,
2013-02-22 14:35:00,33.6,32.3,29.87,SW,226,1.0,6.9,95,0.01,CLR,,0.03,WeatherDisplay:10.37,2013-02-22 19:35:00,
2013-02-22 14:40:00,33.6,32.3,29.87,SW,223,4.7,10.0,95,0.01,CLR,,0.03,WeatherDisplay:10.37,2013-02-22 19:40:00,
2013-02-22 14:45:00,33.5,32.2,29.87,SW,225,4.8,6.9,95,0.02,RA,,0.04,WeatherDisplay:10.37,2013-02-22 19:45:00,
2013-02-22 14:50:00,33.6,32.3,29.87,SW,232,3.9,4.0,95,0.02,RA,,0.04,WeatherDisplay:10.37,2013-02-22 19:50:00,
2013-02-22 14:55:00,33.6,32.3,29.87,SW,225,5.8,11.5,95,0.01,CLR,,0.04,WeatherDisplay:10.37,2013-02-22 19:55:00,
2013-02-22 15:00:00,33.5,32.2,29.87,SW,226,1.9,4.6,95,0.01,CLR,,0.04,WeatherDisplay:10.37,2013-02-22 20:00:00,
2013-02-22 15:05:00,33.6,32.3,29.87,SW,218,2.9,9.2,95,0.01,CLR,,0.04,WeatherDisplay:10.37,2013-02-22 20:05:00,
2013-02-22 15:10:00,33.6,32.3,29.87,SW,217,1.0,9.0,95,0.01,CLR,,0.04,WeatherDisplay:10.37,2013-02-22 20:10:00,
2013-02-22 15:15:00,33.7,32.4,29.87,SW,216,1.3,4.0,95,0.01,CLR,,0.04,WeatherDisplay:10.37,2013-02-22 20:15:00,
2013-02-22 15:20:00,33.7,32.4,29.87,SW,227,1.7,4.6,95,0.01,CLR,,0.04,WeatherDisplay:10.37,2013-02-22 20:20:00,
2013-02-22 15:25:00,33.7,32.4,29.87,SW,223,1.0,4.6,95,0.01,CLR,,0.04,WeatherDisplay:10.37,2013-02-22 20:25:00,
2013-02-22 15:30:00,33.7,32.4,29.86,SSW,196,7.0,7.0,95,0.01,CLR,,0.04,WeatherDisplay:10.37,2013-02-22 20:30:00,
2013-02-22 15:35:00,33.7,32.4,29.86,SW,219,4.1,12.7,95,0.01,CLR,,0.04,WeatherDisplay:10.37,2013-02-22 20:35:00,
2013-02-22 15:40:00,33.6,32.3,29.87,SW,235,3.1,6.9,95,0.01,CLR,,0.04,WeatherDisplay:10.37,2013-02-22 20:40:00,
2013-02-22 15:45:00,33.6,32.3,29.86,SW,228,6.0,12.0,95,0.00,CLR,CLR,0.04,WeatherDisplay:10.37,2013-02-22 20:45:00,
2013-02-22 15:50:00,33.5,32.2,29.86,SW,229,5.5,6.9,95,0.00,CLR,,0.04,WeatherDisplay:10.37,2013-02-22 20:50:00,
2013-02-22 15:55:00,33.5,32.2,29.87,SW,224,5.0,13.0,95,0.00,CLR,CLR,0.04,WeatherDisplay:10.37,2013-02-22 20:55:00,
2013-02-22 16:00:00,33.5,32.5,29.87,SW,230,3.0,4.6,96,0.00,CLR,,0.04,WeatherDisplay:10.37,2013-02-22 21:00:00,
2013-02-22 16:05:00,33.5,32.5,29.87,WSW,239,3.6,9.2,96,0.00,CLR,,0.04,WeatherDisplay:10.37,2013-02-22 21:05:00,
2013-02-22 16:10:00,33.5,32.5,29.88,SW,225,3.5,10.4,96,0.00,CLR,,0.04,WeatherDisplay:10.37,2013-02-22 21:10:00,
2013-02-22 16:15:00,33.5,32.5,29.88,SW,226,3.9,11.5,96,0.00,CLR,,0.04,WeatherDisplay:10.37,2013-02-22 21:15:00,
2013-02-22 16:20:00,33.5,32.5,29.87,SW,234,5.0,11.5,96,0.00,CLR,,0.04,WeatherDisplay:10.37,2013-02-22 21:20:00,
2013-02-22 16:25:00,33.5,32.2,29.88,WSW,241,2.7,11.5,95,0.00,CLR,,0.04,WeatherDisplay:10.37,2013-02-22 21:25:00,
2013-02-22 16:30:00,33.5,32.2,29.88,WSW,238,1.8,6.9,95,0.00,CLR,,0.04,WeatherDisplay:10.37,2013-02-22 21:30:00,
2013-02-22 16:35:00,33.5,32.2,29.88,WSW,240,4.9,6.9,95,0.00,CLR,,0.04,WeatherDisplay:10.37,2013-02-22 21:35:00,
2013-02-22 16:40:00,33.5,32.2,29.88,SW,227,0.2,5.8,95,0.00,CLR,,0.04,WeatherDisplay:10.37,2013-02-22 21:40:00,
2013-02-22 16:45:00,33.5,32.2,29.88,SW,236,3.2,5.0,95,0.00,CLR,,0.04,WeatherDisplay:10.37,2013-02-22 21:45:00,
2013-02-22 16:50:00,33.4,32.1,29.88,SW,229,4.3,4.6,95,0.00,CLR,,0.04,WeatherDisplay:10.37,2013-02-22 21:50:00,
2013-02-22 16:55:00,33.4,32.1,29.88,SW,234,3.5,5.8,95,0.00,CLR,,0.04,WeatherDisplay:10.37,2013-02-22 21:55:00,
2013-02-22 17:00:00,33.3,32.0,29.88,SW,234,3.6,4.6,95,0.00,CLR,,0.04,WeatherDisplay:10.37,2013-02-22 22:00:00,
2013-02-22 17:05:00,33.3,32.0,29.89,SW,230,2.0,10.0,95,0.00,CLR,CLR,0.04,WeatherDisplay:10.37,2013-02-22 22:05:00,
2013-02-22 17:10:00,33.3,32.0,29.89,SW,227,1.7,5.8,95,0.01,RA,,0.05,WeatherDisplay:10.37,2013-02-22 22:10:00,
2013-02-22 17:15:00,33.3,32.0,29.89,SW,233,0.0,3.5,95,0.01,RA,,0.05,WeatherDisplay:10.37,2013-02-22 22:15:00,
2013-02-22 17:20:00,33.3,32.3,29.89,WSW,245,5.3,5.8,96,0.01,,,0.05,WeatherDisplay:10.37,2013-02-22 22:20:00,
2013-02-22 17:25:00,33.3,32.3,29.89,WSW,241,3.0,9.0,96,0.00,CLR,CLR,0.05,WeatherDisplay:10.37,2013-02-22 22:25:00,
2013-02-22 17:30:00,33.3,32.3,29.89,SW,225,4.6,11.5,96,0.01,CLR,,0.05,WeatherDisplay:10.37,2013-02-22 22:30:00,
2013-02-22 17:35:00,33.3,32.0,29.89,SW,235,2.1,5.8,95,0.01,CLR,,0.05,WeatherDisplay:10.37,2013-02-22 22:35:00,
2013-02-22 17:40:00,33.3,32.0,29.89,SW,233,4.2,9.2,95,0.01,CLR,,0.05,WeatherDisplay:10.37,2013-02-22 22:40:00,
2013-02-22 17:45:00,33.3,32.3,29.90,SW,227,3.7,9.2,96,0.01,CLR,,0.05,WeatherDisplay:10.37,2013-02-22 22:45:00,
2013-02-22 17:50:00,33.3,32.3,29.90,SW,226,3.4,6.9,96,0.01,CLR,,0.05,WeatherDisplay:10.37,2013-02-22 22:50:00,
2013-02-22 17:55:00,33.3,32.3,29.89,SW,234,2.0,4.6,96,0.01,CLR,,0.05,WeatherDisplay:10.37,2013-02-22 22:55:00,
2013-02-22 18:00:00,33.2,32.2,29.90,SW,231,5.3,5.8,96,0.01,CLR,,0.05,WeatherDisplay:10.37,2013-02-22 23:00:00,
2013-02-22 18:05:00,33.2,32.2,29.90,West,260,0.3,5.8,96,0.01,CLR,,0.05,WeatherDisplay:10.37,2013-02-22 23:05:00,
2013-02-22 18:10:00,33.2,32.2,29.90,SSW,209,4.6,6.9,96,0.00,CLR,,0.05,WeatherDisplay:10.37,2013-02-22 23:10:00,
2013-02-22 18:15:00,33.2,32.2,29.90,SW,227,2.0,6.0,96,0.00,CLR,CLR,0.05,WeatherDisplay:10.37,2013-02-22 23:15:00,
2013-02-22 18:20:00,33.1,32.1,29.90,SW,227,0.0,0.0,96,0.00,CLR,,0.05,WeatherDisplay:10.37,2013-02-22 23:20:00,
2013-02-22 18:25:00,33.1,32.1,29.90,SW,231,0.8,4.6,96,0.00,CLR,,0.05,WeatherDisplay:10.37,2013-02-22 23:25:00,
2013-02-22 18:30:00,33.0,32.0,29.90,SW,236,0.0,6.9,96,0.00,CLR,,0.05,WeatherDisplay:10.37,2013-02-22 23:30:00,
2013-02-22 18:35:00,33.0,32.0,29.90,WSW,257,2.1,12.7,96,0.00,CLR,,0.05,WeatherDisplay:10.37,2013-02-22 23:35:00,
2013-02-22 18:40:00,33.0,32.0,29.91,SW,214,1.4,4.6,96,0.00,CLR,,0.05,WeatherDisplay:10.37,2013-02-22 23:40:00,
2013-02-22 18:45:00,33.0,32.0,29.91,WSW,240,2.7,4.6,96,0.00,CLR,,0.05,WeatherDisplay:10.37,2013-02-22 23:45:00,
2013-02-22 18:50:00,33.0,32.0,29.91,SW,234,3.6,11.5,96,0.00,CLR,,0.05,WeatherDisplay:10.37,2013-02-22 23:50:00,
2013-02-22 18:55:00,33.0,32.0,29.91,SW,231,3.5,6.0,96,0.00,CLR,,0.05,WeatherDisplay:10.37,2013-02-22 23:55:00,
2013-02-22 19:00:00,33.0,32.0,29.91,SW,225,1.7,6.0,96,0.00,CLR,,0.05,WeatherDisplay:10.37,2013-02-23 00:00:00,
2013-02-22 19:05:00,33.0,31.7,29.91,WSW,240,4.2,4.6,95,0.00,CLR,,0.05,WeatherDisplay:10.37,2013-02-23 00:05:00,
2013-02-22 19:10:00,32.9,31.6,29.92,WSW,246,2.1,6.9,95,0.00,CLR,,0.05,WeatherDisplay:10.37,2013-02-23 00:10:00,
2013-02-22 19:15:00,32.9,31.6,29.91,SW,225,0.0,7.0,95,0.00,CLR,CLR,0.05,WeatherDisplay:10.37,2013-02-23 00:15:00,
2013-02-22 19:20:00,32.8,31.5,29.91,WSW,248,2.7,4.6,95,0.00,CLR,,0.05,WeatherDisplay:10.37,2013-02-23 00:20:00,
2013-02-22 19:25:00,32.8,31.5,29.92,WSW,246,2.6,9.0,95,0.00,CLR,,0.05,WeatherDisplay:10.37,2013-02-23 00:25:00,
2013-02-22 19:30:00,32.7,31.4,29.92,SW,234,3.9,6.0,95,0.00,CLR,,0.05,WeatherDisplay:10.37,2013-02-23 00:30:00,
2013-02-22 19:35:00,32.7,31.4,29.92,SW,234,1.4,5.8,95,0.00,CLR,,0.05,WeatherDisplay:10.37,2013-02-23 00:35:00,
2013-02-22 19:40:00,32.7,31.4,29.92,WSW,246,0.0,2.3,95,0.00,CLR,,0.05,WeatherDisplay:10.37,2013-02-23 00:40:00,
2013-02-22 19:45:00,32.6,31.3,29.92,SW,232,3.1,3.5,95,0.00,CLR,,0.05,WeatherDisplay:10.37,2013-02-23 00:45:00,
2013-02-22 19:50:00,32.6,31.3,29.92,West,259,1.1,6.9,95,0.00,CLR,,0.05,WeatherDisplay:10.37,2013-02-23 00:50:00,
2013-02-22 19:55:00,32.5,31.2,29.92,West,270,0.5,5.0,95,0.00,CLR,,0.05,WeatherDisplay:10.37,2013-02-23 00:55:00,
2013-02-22 20:00:00,32.5,31.2,29.92,West,259,0.0,3.5,95,0.00,CLR,,0.05,WeatherDisplay:10.37,2013-02-23 01:00:00,
2013-02-22 20:05:00,32.4,31.1,29.92,SW,235,1.6,3.5,95,0.00,CLR,,0.05,WeatherDisplay:10.37,2013-02-23 01:05:00,
2013-02-22 20:10:00,32.3,31.0,29.92,West,259,3.4,4.6,95,0.00,CLR,,0.05,WeatherDisplay:10.37,2013-02-23 01:10:00,
2013-02-22 20:15:00,32.3,31.0,29.92,WSW,242,3.1,4.6,95,0.00,CLR,,0.05,WeatherDisplay:10.37,2013-02-23 01:15:00,
2013-02-22 20:20:00,32.2,30.9,29.92,WSW,246,2.2,11.5,95,0.00,CLR,,0.05,WeatherDisplay:10.37,2013-02-23 01:20:00,
2013-02-22 20:25:00,32.2,30.9,29.93,West,271,1.8,5.8,95,0.00,CLR,,0.05,WeatherDisplay:10.37,2013-02-23 01:25:00,
2013-02-22 20:30:00,32.1,30.8,29.93,West,269,0.7,3.5,95,0.00,CLR,,0.05,WeatherDisplay:10.37,2013-02-23 01:30:00,
2013-02-22 20:35:00,32.0,30.7,29.93,WSW,242,4.6,6.0,95,0.00,CLR,,0.05,WeatherDisplay:10.37,2013-02-23 01:35:00,
2013-02-22 20:40:00,31.9,30.6,29.92,WSW,256,5.8,17.3,95,0.00,CLR,,0.05,WeatherDisplay:10.37,2013-02-23 01:40:00,
2013-02-22 20:45:00,31.7,30.4,29.92,West,269,5.5,9.2,95,0.00,CLR,,0.05,WeatherDisplay:10.37,2013-02-23 01:45:00,
2013-02-22 20:50:00,31.6,30.1,29.92,West,261,3.1,4.6,94,0.00,CLR,,0.05,WeatherDisplay:10.37,2013-02-23 01:50:00,
2013-02-22 20:55:00,31.5,30.0,29.92,WSW,242,0.4,9.2,94,0.00,CLR,,0.05,WeatherDisplay:10.37,2013-02-23 01:55:00,
2013-02-22 21:00:00,31.5,30.0,29.93,WSW,254,2.1,11.5,94,0.00,CLR,,0.05,WeatherDisplay:10.37,2013-02-23 02:00:00,
2013-02-22 21:05:00,31.5,30.0,29.93,WSW,248,2.3,3.5,94,0.00,CLR,,0.05,WeatherDisplay:10.37,2013-02-23 02:05:00,
2013-02-22 21:10:00,31.5,30.0,29.93,WSW,245,3.1,7.0,94,0.00,CLR,,0.05,WeatherDisplay:10.37,2013-02-23 02:10:00,
2013-02-22 21:15:00,31.5,30.0,29.93,WSW,240,1.9,3.0,94,0.00,CLR,,0.05,WeatherDisplay:10.37,2013-02-23 02:15:00,
2013-02-22 21:20:00,31.5,30.0,29.93,WSW,252,0.7,6.9,94,0.00,CLR,,0.05,WeatherDisplay:10.37,2013-02-23 02:20:00,
2013-02-22 21:25:00,31.5,30.0,29.93,WSW,243,2.5,8.1,94,0.00,CLR,,0.05,WeatherDisplay:10.37,2013-02-23 02:25:00,
2013-02-22 21:30:00,31.5,30.0,29.93,WSW,239,0.5,4.6,94,0.00,CLR,,0.05,WeatherDisplay:10.37,2013-02-23 02:30:00,
2013-02-22 21:35:00,31.5,29.7,29.93,WSW,254,0.4,3.5,93,0.00,CLR,,0.05,WeatherDisplay:10.37,2013-02-23 02:35:00,
2013-02-22 21:40:00,31.5,29.7,29.93,West,267,0.9,11.5,93,0.00,CLR,,0.05,WeatherDisplay:10.37,2013-02-23 02:40:00,
2013-02-22 21:45:00,31.4,29.3,29.93,WSW,250,0.9,9.2,92,0.00,CLR,,0.05,WeatherDisplay:10.37,2013-02-23 02:45:00,
2013-02-22 21:50:00,31.4,29.3,29.94,WSW,249,0.0,3.5,92,0.00,CLR,,0.05,WeatherDisplay:10.37,2013-02-23 02:50:00,
2013-02-22 21:55:00,31.4,29.1,29.94,SW,230,1.8,3.5,91,0.00,CLR,,0.05,WeatherDisplay:10.37,2013-02-23 02:55:00,
2013-02-22 22:00:00,31.4,29.1,29.94,WSW,241,1.0,7.0,91,0.00,CLR,CLR,0.05,WeatherDisplay:10.37,2013-02-23 03:00:00,
2013-02-22 22:05:00,31.3,29.0,29.94,SW,229,1.6,4.0,91,0.00,CLR,,0.05,WeatherDisplay:10.37,2013-02-23 03:05:00,
2013-02-22 22:10:00,31.3,28.7,29.94,WNW,284,2.7,4.6,90,0.00,CLR,,0.05,WeatherDisplay:10.37,2013-02-23 03:10:00,
2013-02-22 22:15:00,31.3,28.7,29.94,WSW,240,0.0,0.0,90,0.00,CLR,,0.05,WeatherDisplay:10.37,2013-02-23 03:15:00,
2013-02-22 22:20:00,31.2,28.6,29.94,WSW,244,1.0,6.0,90,0.00,CLR,CLR,0.05,WeatherDisplay:10.37,2013-02-23 03:20:00,
2013-02-22 22:25:00,31.2,28.6,29.94,WSW,240,0.0,0.0,90,0.00,CLR,,0.05,WeatherDisplay:10.37,2013-02-23 03:25:00,
2013-02-22 22:30:00,31.2,28.6,29.94,WSW,257,0.6,3.5,90,0.00,CLR,,0.05,WeatherDisplay:10.37,2013-02-23 03:30:00,
2013-02-22 22:35:00,31.1,28.2,29.94,West,266,1.3,3.5,89,0.00,CLR,,0.05,WeatherDisplay:10.37,2013-02-23 03:35:00,
2013-02-22 22:40:00,31.0,28.1,29.94,WSW,255,0.0,7.0,89,0.00,CLR,CLR,0.05,WeatherDisplay:10.37,2013-02-23 03:40:00,
2013-02-22 22:45:00,30.9,28.0,29.94,WSW,249,0.0,0.0,89,0.00,CLR,,0.05,WeatherDisplay:10.37,2013-02-23 03:45:00,
2013-02-22 22:50:00,30.8,27.7,29.94,WSW,242,1.0,5.8,88,0.00,CLR,,0.05,WeatherDisplay:10.37,2013-02-23 03:50:00,
2013-02-22 22:55:00,30.6,27.2,29.94,SW,233,3.1,10.4,87,0.00,CLR,,0.05,WeatherDisplay:10.37,2013-02-23 03:55:00,
2013-02-22 23:00:00,30.5,26.8,29.94,West,267,1.7,11.5,86,0.00,CLR,,0.05,WeatherDisplay:10.37,2013-02-23 04:00:00,
2013-02-22 23:05:00,30.5,26.8,29.94,WSW,253,1.4,6.9,86,0.00,CLR,,0.05,WeatherDisplay:10.37,2013-02-23 04:05:00,
2013-02-22 23:10:00,30.4,26.7,29.95,West,269,0.4,2.3,86,0.00,CLR,,0.05,WeatherDisplay:10.37,2013-02-23 04:10:00,
2013-02-22 23:15:00,30.3,26.6,29.95,SW,228,4.3,10.4,86,0.00,CLR,,0.05,WeatherDisplay:10.37,2013-02-23 04:15:00,
2013-02-22 23:20:00,30.3,26.3,29.94,WSW,237,2.0,12.0,85,0.00,CLR,CLR,0.05,WeatherDisplay:10.37,2013-02-23 04:20:00,
2013-02-22 23:25:00,30.1,26.1,29.94,West,264,1.2,4.6,85,0.00,CLR,,0.05,WeatherDisplay:10.37,2013-02-23 04:25:00,
2013-02-22 23:30:00,30.0,26.0,29.94,WSW,254,2.3,12.0,85,0.00,CLR,,0.05,WeatherDisplay:10.37,2013-02-23 04:30:00,
2013-02-22 23:35:00,29.9,25.7,29.94,WSW,257,1.5,3.5,84,0.00,CLR,,0.05,WeatherDisplay:10.37,2013-02-23 04:35:00,
2013-02-22 23:40:00,29.9,25.7,29.94,WSW,248,5.5,15.0,84,0.00,CLR,,0.05,WeatherDisplay:10.37,2013-02-23 04:40:00,
2013-02-22 23:45:00,29.8,25.3,29.94,WSW,248,1.7,3.5,83,0.00,CLR,,0.05,WeatherDisplay:10.37,2013-02-23 04:45:00,
2013-02-22 23:50:00,29.8,25.0,29.94,West,265,2.0,9.2,82,0.00,CLR,,0.05,WeatherDisplay:10.37,2013-02-23 04:50:00,
2013-02-22 23:55:00,29.8,25.0,29.94,WSW,244,2.5,5.8,82,0.00,CLR,,0.05,WeatherDisplay:10.37,2013-02-23 04:55:00,